Regional Weather Roundup
Issued by NWS

Home | Current Version | Previous Version | Graphics & Text | Print | Product List | Glossary On
Versions: 1 2 3 4 5 6 7 8 9 10 11 12 13 14 15 16 17 18 19 20 21 22 23 24 25 26 27 28 29 30 31 32 33 34 35 36 37 38 39 40 41 42 43 44 45 46 47 48 49 50
000
ASUS45 KABQ 291601
RWRNM
NEW MEXICO REGIONAL WEATHER ROUNDUP
NATIONAL WEATHER SERVICE ALBUQUERQUE NM
1000 AM MDT WED MAR 29 2017

NOTE: "FAIR" MEANS FEW OR NO CLOUDS BELOW 12,000 FEET AGL WITH NO
       SIGNIFICANT WEATHER OR OBSTRUCTIONS TO VISION.

      THIS PRODUCT IS RELEASED AS TWO VERSIONS.  ONE VERSION NEAR
      THE TOP OF THE HOUR CONTAINING PRELIMINARY DATA FROM ALBUQUERQUE
      AND OTHER STATIONS.  A FINAL VERSION WITH ADDITIONAL DATA IS
      ISSUED ABOUT 10 MINUTES AFTER THE HOUR.

NMZ501-503-504-510>518-291700-
NORTHWEST PLATEAU/NORTHCENTRAL MOUNTAINS

CITY           SKY/WX    TMP DP  RH WIND       PRES   REMARKS
FARMINGTON     FAIR      50  29  44 W10       30.01R
LOS ALAMOS     PTSUNNY   42  32  70 N22G28    30.01R
SANTA FE       CLOUDY    45  36  70 N15G29    29.98R
TAOS             N/A     39  27  60 N20G28    30.00S WCI  30
ANGEL FIRE     FAIR      35  24  63 N8        30.00R WCI  29

$$
NMZ402-403-502-505>509-291700-
WESTCENTRAL MOUNTAINS/SOUTHWEST MOUNTAINS

CITY           SKY/WX    TMP DP  RH WIND       PRES   REMARKS
GALLUP         FAIR      45  31  58 CALM      30.06R
GRANTS         CLOUDY    45  35  68 NW15G23   30.08R
SILVER CITY    CLOUDY    48  32  53 NW13      30.02R

$$
NMZ407-409-411-412-291700-
SOUTHERN DESERTS

CITY           SKY/WX    TMP DP  RH WIND       PRES   REMARKS
DEMING         CLOUDY    55  34  45 NW13      29.98R
LAS CRUCES     FAIR      54  37  52 N18G29    29.99R
HOLLOMAN AFB   FAIR      52  43  72 N14       30.00R
ALAMOGORDO       N/A    N/A N/A N/A MISG        N/A
T OR C         PTSUNNY   49  38  65 CALM      30.00R

$$
NMZ519>523-291700-
CENTRAL VALLEYS/CENTRAL HIGHLANDS

CITY           SKY/WX    TMP DP  RH WIND       PRES   REMARKS
ALBUQUERQUE    CLOUDY    48  37  65 NW14      30.01R
DOUBLE EAGLE   CLOUDY    46  37  71 NW18G26   30.01R
MORIARTY ARPT  CLOUDY    45  37  72 N22G29    29.99R
CLINES CORNERS CLOUDY    38  35  89 NW15      29.98R WCI  29
BELEN          CLOUDY    48  39  71 NW13      30.02R
SOCORRO        CLOUDY    50  39  66 N8        30.02R

$$
NMZ524>526-539-540-291700-
SOUTHCENTRAL MOUNTAINS

CITY           SKY/WX    TMP DP  RH WIND       PRES   REMARKS
RUIDOSO        NOT AVBL

$$
NMZ527>531-291700-
NORTHEAST HIGHLANDS/NORTHEAST PLAINS

CITY           SKY/WX    TMP DP  RH WIND       PRES   REMARKS
LAS VEGAS      CLOUDY    41  28  60 N25G35    29.94R
RATON          LGT RAIN  38  28  67 N37G55    29.91S WCI  25
CLAYTON        PTSUNNY   41  39  93 N31G44    29.89R

$$
NMZ532>537-291700-
EASTCENTRAL PLAINS

CITY           SKY/WX    TMP DP  RH WIND       PRES   REMARKS
TUCUMCARI      RAIN      42  38  85 N13       29.93R FOG
CANNON AFB     LGT RAIN  38  38 100 N22G32    29.89R WCI  27
CLOVIS AIRPORT PTSUNNY   41  37  87 N30G39    29.89R

$$
NMZ028-029-538-291700-
SOUTHEAST PLAINS

CITY           SKY/WX    TMP DP  RH WIND       PRES   REMARKS
ROSWELL        LGT RAIN  47  41  80 N18       29.97
ARTESIA        CLOUDY    50  41  71 N28G39    29.95R
CARLSBAD       CLOUDY    52  39  61 NW21      29.93R
HOBBS          CLOUDY    48  36  61 NW23G30   29.90R


$$



USA.gov is the U.S. government's official web portal to all federal, state and local government web resources and services.